Location: Del Oro Observatory
(38.3044°N, 104.8119°W)
Time: 03:15:20
(UTC-07:00)

Iridium 35 - Visible Passes

Search period start: 21 January 2018 00:00
Search period end: 31 January 2018 00:00
Orbit: 776 x 779 km, 86.4° (Epoch: 20 January)

Date Brightness Start Highest point End Pass type
(mag) Time Alt. Az. Time Alt. Az. Time Alt. Az.
21 Jan 6.4 17:33:53 10° NE 17:37:20 18° ENE 17:40:47 10° ESE visible
21 Jan 5.9 19:13:19 10° NNW 19:18:20 48° W 19:23:19 10° SSW visible
22 Jan 6.7 06:28:04 10° SSE 06:32:49 38° E 06:37:37 10° NNE visible
22 Jan 5.0 18:39:37 10° N 18:44:53 89° E 18:50:05 10° S visible
23 Jan 7.7 05:55:47 10° SE 05:59:33 20° E 06:03:19 10° NE visible
23 Jan 5.2 18:06:16 10° N 18:11:18 47° E 18:16:18 10° SSE visible
23 Jan 7.7 19:48:09 10° NW 19:51:35 18° W 19:55:00 10° WSW visible
24 Jan 8.3 05:25:23 10° E 05:26:23 11° ENE 05:27:23 10° ENE visible
24 Jan 6.7 19:13:41 10° NNW 19:18:19 33° W 19:22:56 10° SSW visible
25 Jan 5.9 06:27:46 10° SSE 06:32:50 56° E 06:37:56 10° NNE visible
25 Jan 5.5 18:39:47 10° N 18:44:57 63° W 18:50:04 10° SSW visible
26 Jan 7.1 05:55:02 10° SE 05:59:29 29° E 06:03:58 10° NNE visible
26 Jan 5.0 18:06:13 10° N 18:11:27 70° E 18:16:38 10° S visible
26 Jan 8.1 19:49:32 10° NW 19:51:27 12° WNW 19:53:23 10° W visible
27 Jan 7.9 05:23:11 10° ESE 05:26:15 16° E 05:29:20 10° NE visible
27 Jan 5.6 17:33:00 10° NNE 17:37:50 37° E 17:42:37 10° SSE visible
27 Jan 7.4 19:14:15 10° NNW 19:18:16 23° W 19:22:17 10° SW visible
28 Jan 5.2 06:27:42 10° S 06:32:54 82° E 06:38:08 10° N visible
28 Jan 6.3 18:40:04 10° NNW 18:44:58 42° W 18:49:51 10° SSW visible
29 Jan 6.3 05:54:35 10° SSE 05:59:28 43° E 06:04:23 10° NNE visible
29 Jan 5.2 18:06:18 10° N 18:11:33 81° W 18:16:45 10° S visible
30 Jan 7.5 05:22:08 10° SE 05:26:10 23° E 05:30:12 10° NNE visible
30 Jan 8.0 19:15:09 10° NW 19:18:11 16° W 19:21:13 10° WSW visible
